Flag for Iran Weather past 2 weeks in Mashhad, Iran

Now
66 °F

Clear.


Feels Like: 66 °F
Forecast: 57 / 79 °F
Wind: 5 mph from South

Location: Mashhad Airport

Current Time: Sep 18, 2014 at 6:49:05 AM

Latest Report: Sep 18, 2014 at 6:30 AM


Visibility: 5 mi

Pressure: 30.07 "Hg

Humidity: 52%

Dew point: 48 °F

Location of MashhadLocation

Historic Weather in Mashhad — Graph

°F

Mashhad temperature yesterday

Maximum temperature yesterday: 95 °F (at 2:00 PM)
Minimum temperature yesterday: 63 °F (at 5:00 AM)
Average temperature yesterday: 78 °F

Past Weeks' High & Low Weather Summary

 TemperatureHumidityPressure
High95 °F (Sep 17, 2:00 PM)52% (Sep 18, 5:30 AM)30.12 "Hg (Sep 18, 5:30 AM)
Low55 °F (Sep 12, 5:30 AM)4% (Sep 5, 3:30 PM)29.77 "Hg (Sep 5, 4:00 PM)
Average76 °F16%29.98 "Hg
* Reported Sep 3 5:30 AM — Sep 18 5:30 AM, Mashhad, Weather by CustomWeather, © 2014

Note: Actual official high and low records may vary slightly from our data, if they occured in-between our weather recording intervals... More about our weather records

Advertising

Mashhad weather history for previous 24 hours

 ConditionsComfort  
Time TempWeatherWind HumidityBarometerVisibility
5:30 AM
Sep 18
66 °FClear.5 mph52%30.07 "Hg10 mi
4:55 AM68 °FClear.5 mph43%30.07 "Hg10 mi
4:30 AM68 °FClear.5 mph43%30.04 "Hg10 mi
4:00 AM70 °FClear.No wind40%30.04 "Hg10 mi
3:30 AM70 °FClear.5 mph40%30.04 "Hg10 mi
2:55 AM70 °FClear.7 mph40%30.04 "Hg10 mi
2:30 AM72 °FClear.7 mph41%30.01 "Hg10 mi
2:00 AM72 °FClear.7 mph47%30.01 "Hg10 mi
1:30 AM72 °FClear.7 mph50%30.01 "Hg10 mi
1:00 AM73 °FClear.9 mph44%29.98 "Hg10 mi
12:30 AM73 °FClear.7 mph44%29.98 "Hg10 mi
12:00 AM73 °FClear.7 mph44%29.98 "Hg10 mi
11:30 PM
Sep 17
73 °FClear.9 mph41%29.98 "Hg10 mi
11:00 PM73 °FClear.7 mph41%29.98 "Hg10 mi
10:30 PM75 °FClear.9 mph36%29.98 "Hg10 mi
10:00 PM77 °FClear.9 mph36%29.98 "Hg10 mi
9:30 PM77 °FClear.12 mph34%29.95 "Hg10 mi
9:00 PM77 °FClear.7 mph34%29.95 "Hg10 mi
8:30 PM77 °FClear.7 mph34%29.92 "Hg10 mi
8:00 PM81 °FSunny.9 mph30%29.89 "Hg10 mi
7:30 PM81 °FSunny.7 mph28%29.89 "Hg10 mi
6:55 PM82 °FSunny.9 mph26%29.86 "Hg10 mi
6:30 PM86 °FSunny.12 mph20%29.86 "Hg10 mi
5:55 PM88 °FSunny.16 mph18%29.83 "Hg10 mi
5:30 PM91 °FSunny.14 mph15%29.83 "Hg10 mi
4:55 PM93 °FSunny.14 mph8%29.80 "Hg10 mi
4:30 PM95 °FSunny.14 mph6%29.80 "Hg10 mi
4:00 PM95 °FSunny.12 mph6%29.80 "Hg10 mi
3:30 PM95 °FSunny.9 mph6%29.80 "Hg10 mi
2:55 PM93 °FSunny.9 mph7%29.83 "Hg10 mi
2:30 PM93 °FSunny.5 mph7%29.83 "Hg10 mi
2:00 PM95 °FSunny.9 mph6%29.83 "Hg10 mi
1:30 PM93 °FSunny.7 mph7%29.83 "Hg10 mi
12:30 PM90 °FSunny.9 mph8%29.86 "Hg10 mi
12:00 PM91 °FSunny.5 mph8%29.86 "Hg10 mi
11:30 AM88 °FSunny.7 mph9%29.89 "Hg10 mi
11:00 AM88 °FSunny.7 mph9%29.89 "Hg10 mi
10:30 AM86 °FSunny.No wind11%29.89 "Hg10 mi
10:00 AM82 °FSunny.5 mph12%29.89 "Hg10 mi
9:30 AM79 °FSunny.No wind13%29.89 "Hg10 mi
9:00 AM77 °FSunny.No wind18%29.86 "Hg10 mi
8:30 AM73 °FSunny.No wind20%29.86 "Hg10 mi
8:00 AM70 °FSunny.5 mph25%29.86 "Hg10 mi
7:30 AM68 °FClear.5 mph21%29.86 "Hg10 mi
7:00 AM64 °FClear.5 mph24%29.86 "Hg10 mi
6:30 AM63 °FClear.5 mph30%29.86 "Hg10 mi
6:00 AM63 °FClear.5 mph27%29.83 "Hg10 mi
Weather by CustomWeather, © 2014

See weather overviewHow to use our weather pages